Theta_e
318 319 320 317 317 316 315 314 313 310 311 315 315 315 315 314 313 313 312 311 309 308 308 309 309 310 310 318 318 318 319 319 321 323 329 330 327 329 331 332 333 333 334 333
318 320 316 316 317 318 316 314 311 312 311 314 314 314 314 314 314 311 308 306 305 306 306 309 311 314 316 312 313 317 318 319 321 322 328 328 325 326 329 330 331 332 333 332
316 315 315 316 317 318 317 316 313 311 313 312 312 312 312 313 308 306 305 305 304 305 307 307 307 309 310 314 315 313 317 318 321 324 327 326 325 326 327 327 329 331 330 331
312 314 314 314 315 314 316 314 314 314 313 314 311 311 311 311 307 304 303 301 301 302 300 300 300 302 304 307 315 318 313 317 319 323 326 325 325 324 324 325 326 328 330 329
310 311 313 315 315 313 314 314 315 315 313 313 312 312 311 310 306 302 299 299 298 298 296 297 297 299 300 303 309 316 318 315 316 321 325 324 324 323 323 325 324 325 328 327
304 305 309 312 312 313 313 313 313 316 315 319 313 313 311 310 305 300 297 296 296 296 294 294 296 296 297 299 304 312 317 317 316 317 324 324 324 324 323 324 324 324 324 325
302 305 305 304 312 313 313 316 318 318 319 319 313 312 300 298 298 297 295 294 293 293 292 292 294 295 295 296 298 303 310 317 319 320 323 322 323 324 323 324 326 324 323 323
299 307 300 299 300 308 314 314 314 316 316 317 312 315 299 295 294 293 292 291 291 291 290 292 293 294 294 294 295 297 303 312 317 319 319 318 321 323 324 324 325 324 322 321
297 300 299 295 296 297 309 317 311 310 309 311 303 299 296 294 293 292 291 290 289 289 290 291 292 292 293 293 293 294 298 304 313 317 317 317 319 320 323 324 325 324 322 321
296 296 297 294 291 291 294 296 315 313 314 316 305 300 298 294 293 292 290 289 289 289 289 291 291 291 291 291 291 292 293 297 301 312 317 318 319 320 321 322 322 323 322 322
295 296 296 293 291 288 289 289 291 303 311 313 305 296 292 292 290 290 289 289 289 289 288 289 289 289 290 290 290 290 291 292 295 302 310 316 317 317 317 317 319 319 320 320
293 296 295 293 291 289 286 285 290 296 314 303 298 290 290 289 288 288 288 288 289 288 288 288 288 288 289 289 290 290 290 291 292 296 305 313 319 318 318 318 318 317 318 318
290 291 295 292 291 287 286 285 286 293 298 288 295 288 286 286 286 286 286 286 287 287 287 287 287 287 288 288 289 290 290 290 291 292 299 308 313 318 317 316 317 316 317 317
289 287 286 286 285 285 285 284 283 289 288 284 284 283 284 284 284 284 284 285 285 285 286 286 286 286 287 287 288 289 290 290 290 291 296 302 308 314 317 317 317 316 314 314
288 287 286 285 284 283 283 284 283 283 285 284 282 282 283 283 283 283 284 283 284 284 284 285 285 286 286 286 286 287 288 290 290 290 293 299 305 310 316 317 316 315 313 312
290 289 285 285 284 283 281 282 282 281 282 283 283 282 282 282 282 283 282 282 282 283 283 284 284 284 285 285 285 287 288 289 290 290 291 298 304 307 314 317 316 315 313 311
285 287 287 287 286 285 282 281 283 281 281 282 281 281 282 281 282 281 281 281 281 282 282 283 283 283 283 284 285 287 288 289 290 290 291 299 303 304 310 316 316 314 312 310
284 287 289 286 286 281 282 280 281 281 280 280 281 280 280 280 281 281 281 281 281 281 281 282 282 282 282 283 285 285 288 288 289 290 290 300 302 303 307 311 316 314 313 311
284 282 280 280 281 281 280 280 279 280 279 279 279 279 279 280 282 281 280 280 280 280 281 281 281 281 281 283 284 284 286 288 288 289 290 290 299 302 303 306 312 315 314 313
283 283 282 283 281 283 278 279 279 280 281 279 279 278 279 279 279 279 280 280 280 280 280 280 280 280 281 281 283 283 284 286 288 287 290 291 294 302 302 303 307 311 314 314
280 279 282 284 280 280 278 278 278 281 279 278 278 277 277 278 278 279 279 279 279 279 279 279 279 279 280 280 281 282 283 284 284 285 287 290 294 301 301 302 306 308 312 314
277 275 279 282 281 279 277 277 275 275 274 276 276 276 276 276 277 278 278 278 278 278 278 278 278 278 279 279 279 280 281 281 282 283 285 289 293 298 300 301 305 306 309 311
274 274 275 275 279 278 276 272 274 272 272 273 273 274 274 275 275 276 277 277 277 277 278 277 277 278 278 278 278 279 280 280 280 282 284 287 292 297 299 300 302 304 306 307
277 276 275 277 275 274 276 275 275 273 272 270 269 271 274 273 274 274 275 276 276 276 276 276 276 277 277 277 277 278 278 279 279 281 283 286 290 296 298 298 300 302 303 304
276 276 275 276 274 274 277 274 271 271 272 270 272 271 271 269 270 271 273 274 274 276 275 275 275 275 276 276 276 277 277 278 278 280 282 286 291 295 296 297 298 300 302 302
271 270 272 274 272 271 271 268 270 269 269 269 267 270 271 271 268 271 272 273 273 275 275 274 274 274 275 275 276 276 276 277 277 280 281 285 289 294 296 296 296 299 301 302
Wind_Speed
19 16 25 37 30 18 19 17 22 12 14 19 19 14 8 7 6 7 7 7 8 9 7 10 12 13 10 6 11 15 18 23 23 25 24 24 22 23 24 26 27 25 26 27
16 26 33 19 18 19 22 18 18 13 12 14 14 13 10 11 6 8 9 9 8 7 8 9 14 16 18 13 12 12 17 19 24 28 26 24 24 21 23 25 27 29 28 28
23 22 20 19 21 25 26 26 18 10 6 2 5 7 13 8 13 13 9 8 8 7 9 12 16 18 21 22 12 15 16 20 24 27 26 17 20 16 22 25 27 29 30 30
16 27 20 29 24 22 24 24 16 18 8 5 7 4 12 11 13 10 11 9 8 9 10 9 12 16 20 23 18 14 17 19 23 27 29 29 28 22 24 27 28 27 30 31
7 14 19 26 25 24 24 11 22 18 8 6 10 3 8 14 11 11 9 9 8 8 10 9 12 16 18 23 19 16 12 16 23 26 31 31 26 26 21 23 25 29 29 32
18 9 6 8 23 20 21 9 13 4 9 11 13 10 4 8 15 9 9 9 8 8 9 9 16 18 21 24 21 16 12 14 18 26 30 30 26 24 23 26 25 27 27 31
10 19 2 5 5 18 14 11 6 9 7 11 18 11 7 12 15 14 11 9 8 8 8 9 11 18 21 24 25 21 19 11 13 21 26 23 24 24 26 29 27 28 27 27
5 3 7 6 3 5 24 17 5 13 12 7 12 7 8 14 14 12 12 11 10 10 8 11 15 17 20 22 24 25 24 18 9 18 21 20 20 22 20 25 29 25 27 29
5 1 2 10 5 4 4 17 21 1 4 9 8 6 11 12 12 11 11 10 9 9 9 11 16 19 20 22 23 25 25 21 11 7 14 21 20 23 21 18 24 29 25 26
2 5 8 6 8 10 5 7 12 9 15 8 5 6 9 10 8 10 9 9 9 9 10 12 15 20 21 21 22 24 24 22 16 7 6 15 18 17 21 15 15 18 21 21
6 4 6 6 7 19 7 5 6 5 4 10 6 3 6 10 9 9 9 9 8 8 11 13 17 21 22 22 23 23 23 25 24 14 7 6 16 18 17 17 18 19 19 21
7 3 4 6 11 8 16 10 4 3 9 5 4 4 7 8 9 8 9 10 9 10 11 12 18 21 23 24 23 23 24 23 24 23 12 7 10 15 17 19 21 23 23 22
12 5 1 5 3 11 9 21 12 4 3 4 4 5 8 9 10 10 10 8 9 11 12 12 16 19 22 24 24 25 25 24 23 24 18 10 7 13 14 16 17 18 20 23
8 10 12 9 9 9 10 21 24 10 3 9 10 12 12 11 11 10 9 10 12 12 13 13 13 18 21 24 25 24 24 22 23 25 24 18 11 5 14 15 15 15 17 19
4 7 15 14 15 21 20 22 21 24 14 6 11 14 10 11 10 11 10 13 13 14 15 15 15 18 23 26 28 28 28 27 26 25 23 22 19 11 11 15 16 16 16 17
4 4 9 11 12 21 22 22 21 18 20 12 12 13 9 11 9 10 14 15 16 16 16 16 17 23 24 26 29 29 27 27 25 23 23 24 23 15 8 14 15 16 16 17
7 1 5 2 3 5 10 19 15 15 16 10 12 6 12 13 12 13 14 15 16 16 16 16 16 22 25 28 29 28 28 27 24 23 23 20 23 20 12 14 14 18 17 15
6 6 3 1 2 6 6 12 7 14 14 15 10 12 13 13 8 15 15 15 14 15 16 15 22 25 27 27 27 30 26 24 23 24 24 20 22 22 17 10 17 18 18 16
9 2 3 3 5 5 6 10 6 5 11 14 14 14 16 17 10 8 17 16 14 14 19 21 23 25 27 27 28 28 26 25 23 22 24 27 25 23 20 16 7 18 19 21
14 3 3 3 4 3 2 11 12 2 2 14 14 13 15 15 9 8 16 17 19 21 22 24 26 26 25 28 28 26 25 24 23 29 29 28 28 23 23 19 14 8 18 22
6 5 6 6 3 3 8 10 7 2 5 14 13 13 13 9 7 13 17 17 20 21 23 25 25 24 25 27 28 26 25 22 28 27 30 32 29 20 22 18 16 13 10 19
3 3 3 5 4 2 9 5 5 2 5 11 11 11 11 12 13 12 13 15 21 22 24 25 25 25 25 27 27 26 25 29 28 28 28 29 28 24 21 18 14 13 11 13
3 3 0 3 2 3 3 5 2 1 2 2 4 10 10 10 12 14 12 14 17 22 23 24 23 24 25 27 26 26 28 30 29 28 27 27 27 24 18 16 13 13 10 10
1 2 1 1 3 2 4 3 4 2 1 4 4 4 9 7 11 11 11 14 17 18 19 22 23 24 27 28 27 25 29 31 29 26 27 26 25 23 20 17 12 9 10 12
2 3 3 1 2 5 3 3 1 2 2 4 9 9 8 4 7 7 10 14 19 20 21 23 23 24 27 28 28 28 30 30 28 26 25 23 21 19 20 17 13 9 9 12
0 3 2 2 4 4 5 4 7 5 4 5 4 8 16 12 9 15 13 18 21 17 24 23 23 22 26 29 28 30 31 31 28 26 25 23 22 20 17 14 9 6 6 9
Wind_Direction
203 204 210 211 215 218 207 198 214 221 197 182 200 197 197 144 136 122 125 102 70 51 35 29 13 357 338 211 211 219 218 220 212 202 193 195 196 207 211 212 211 206 205 204
206 220 220 216 210 228 231 230 225 211 226 178 193 209 198 161 152 106 87 65 58 44 27 21 18 13 359 315 243 229 220 216 209 203 200 201 199 202 204 209 211 213 208 204
220 229 228 220 216 214 220 225 231 229 115 44 165 210 204 187 111 100 83 74 61 52 43 28 14 4 358 356 319 244 236 222 211 204 198 187 187 194 198 206 211 211 214 208
257 240 234 218 231 227 227 219 227 240 152 184 177 232 194 174 123 102 86 69 58 52 46 33 12 5 359 346 337 337 247 232 216 206 196 187 181 180 201 200 204 206 209 210
255 256 234 239 225 228 240 220 208 227 223 135 186 129 231 159 131 111 82 66 48 47 53 31 14 6 2 359 345 326 291 247 224 214 204 194 192 201 200 192 199 207 203 213
259 277 320 284 241 233 238 231 238 226 233 231 192 179 204 154 144 110 85 60 39 39 44 28 18 16 11 6 1 345 313 262 234 217 203 199 198 195 188 192 195 198 202 210
303 250 265 360 274 225 219 165 177 200 206 210 199 192 78 64 75 91 85 60 35 34 36 22 19 18 13 8 359 357 349 301 238 217 202 206 209 202 198 194 190 185 196 205
335 157 1 7 354 301 198 197 178 190 198 174 172 201 118 90 78 72 65 51 33 23 25 21 22 22 16 9 3 0 0 355 252 218 213 216 220 215 215 203 195 186 205 209
327 298 31 50 329 22 279 203 211 246 164 195 118 74 85 104 90 78 66 53 33 16 18 17 17 19 17 10 6 3 359 1 355 229 219 220 224 217 218 214 201 201 206 209
335 286 8 46 11 6 357 335 196 225 195 181 106 135 149 121 83 68 51 41 28 14 14 15 16 14 12 10 5 3 4 0 1 26 233 221 218 214 216 210 196 193 202 210
341 282 38 67 53 35 352 24 325 293 199 195 132 96 26 64 57 38 34 31 18 15 14 13 9 5 3 3 1 358 0 0 356 9 10 226 221 222 225 222 219 217 221 219
352 301 51 84 119 99 54 14 288 291 178 46 73 102 44 52 52 38 26 16 13 17 14 9 7 3 358 356 356 355 356 356 355 355 360 349 208 209 216 222 224 224 227 228
353 13 233 152 323 19 36 8 349 209 287 40 109 120 60 39 43 31 22 9 16 14 7 5 5 6 356 350 353 352 351 349 348 347 355 1 10 219 220 225 227 225 229 228
64 44 70 86 80 51 36 21 18 49 33 81 60 84 40 27 22 19 9 20 12 9 6 1 3 358 355 350 347 346 343 344 345 343 350 344 338 321 237 225 223 224 224 231
81 90 99 106 96 66 44 36 27 44 35 58 104 67 24 18 9 7 24 13 8 6 3 359 357 354 353 347 342 341 339 340 341 343 337 334 338 322 249 234 223 226 227 229
351 130 135 131 111 72 49 30 41 33 33 41 67 63 12 2 359 30 21 10 6 3 359 355 353 350 348 343 338 335 334 333 334 332 330 333 334 332 284 241 226 221 226 227
354 295 200 167 322 54 31 15 30 52 40 27 41 17 6 5 3 45 22 11 2 359 355 351 348 345 342 338 334 333 330 333 333 331 326 324 337 332 348 249 229 217 216 221
331 326 34 64 358 49 118 39 21 73 47 35 28 23 12 354 24 56 24 5 359 358 352 349 346 342 339 336 338 336 333 335 334 333 330 337 339 335 347 328 236 227 219 212
345 305 21 91 52 130 55 14 346 332 51 25 9 11 6 349 322 3 5 356 353 352 348 346 344 342 338 339 340 339 340 342 338 338 335 332 329 336 339 337 313 240 230 221
350 354 98 35 69 51 11 346 333 327 86 9 8 4 1 0 16 338 340 348 348 348 349 346 348 344 345 343 343 341 340 338 352 344 335 327 322 324 332 338 331 307 240 235
343 347 23 44 101 91 354 322 323 318 348 343 356 356 358 356 327 317 336 343 342 341 347 352 350 348 345 346 345 340 339 344 337 335 333 325 325 318 320 326 335 320 283 243
24 329 25 336 63 70 4 20 80 300 328 335 350 341 340 325 324 333 334 338 335 341 351 353 352 346 346 348 347 341 339 337 333 330 330 326 318 315 317 321 327 326 303 268
28 144 81 91 84 49 87 141 144 134 244 328 321 320 316 319 326 324 331 329 334 338 349 350 347 341 345 351 348 341 337 336 331 329 326 326 319 315 309 310 316 319 312 281
84 16 93 84 328 279 160 112 85 62 250 292 275 282 298 309 314 318 317 325 332 338 349 343 345 347 346 346 347 344 338 336 332 329 324 324 320 313 309 305 300 308 307 285
209 345 337 231 344 348 109 59 36 319 314 290 298 290 282 271 292 285 312 324 330 332 347 345 343 342 340 338 344 345 345 339 334 330 325 321 318 306 306 305 302 286 282 276
131 198 104 239 217 166 261 305 334 336 310 296 298 310 316 316 298 315 315 326 326 333 341 340 337 337 335 336 342 346 349 343 336 334 332 324 320 310 297 288 286 301 285 276